TimeEDT,TemperatureF,Dew PointF,Humidity,Sea Level PressureIn,VisibilityMPH,Wind Direction,Wind SpeedMPH,Gust SpeedMPH,PrecipitationIn,Events,Conditions,WindDirDegrees,DateUTC
12:53 AM,63.0,57.0,81,30.05,10.0,Calm,Calm,-,N/A,,Clear,0,2013-10-02 04:53:00
1:53 AM,60.1,55.9,86,30.05,10.0,Calm,Calm,-,N/A,,Clear,0,2013-10-02 05:53:00
2:53 AM,57.9,55.0,90,30.05,10.0,Calm,Calm,-,N/A,,Clear,0,2013-10-02 06:53:00
3:53 AM,55.9,55.0,97,30.05,10.0,Calm,Calm,-,N/A,,Clear,0,2013-10-02 07:53:00
4:53 AM,57.0,55.0,93,30.05,10.0,Calm,Calm,-,N/A,,Clear,0,2013-10-02 08:53:00
5:53 AM,57.0,55.0,93,30.06,10.0,Calm,Calm,-,N/A,,Clear,0,2013-10-02 09:53:00
6:53 AM,57.0,55.0,93,30.07,10.0,Calm,Calm,-,N/A,,Clear,0,2013-10-02 10:53:00
7:53 AM,57.9,55.0,90,30.09,10.0,Calm,Calm,-,N/A,,Clear,0,2013-10-02 11:53:00
8:53 AM,64.0,55.9,75,30.10,10.0,Calm,Calm,-,N/A,,Clear,0,2013-10-02 12:53:00
9:53 AM,70.0,57.9,65,30.11,10.0,Calm,Calm,-,N/A,,Clear,0,2013-10-02 13:53:00
10:53 AM,75.0,57.9,55,30.11,10.0,Calm,Calm,-,N/A,,Clear,0,2013-10-02 14:53:00
11:53 AM,78.1,55.9,46,30.10,10.0,Calm,Calm,-,N/A,,Clear,0,2013-10-02 15:53:00
12:53 PM,80.1,54.0,40,30.08,10.0,Variable,3.5,-,N/A,,Clear,0,2013-10-02 16:53:00
1:53 PM,82.0,53.1,37,30.06,10.0,WSW,9.2,-,N/A,,Clear,250,2013-10-02 17:53:00
2:53 PM,82.0,55.0,39,30.04,10.0,WSW,9.2,-,N/A,,Clear,250,2013-10-02 18:53:00
3:53 PM,82.0,55.9,41,30.03,10.0,WSW,9.2,-,N/A,,Clear,250,2013-10-02 19:53:00
4:53 PM,82.0,55.9,41,30.02,10.0,WSW,9.2,-,N/A,,Clear,250,2013-10-02 20:53:00
5:53 PM,80.1,57.0,45,30.02,10.0,Calm,Calm,-,N/A,,Clear,0,2013-10-02 21:53:00
6:53 PM,75.0,59.0,57,30.04,10.0,South,5.8,-,N/A,,Clear,170,2013-10-02 22:53:00
7:53 PM,73.0,59.0,61,30.05,10.0,SSW,3.5,-,N/A,,Clear,200,2013-10-02 23:53:00
8:53 PM,68.0,60.1,76,30.06,10.0,Calm,Calm,-,N/A,,Clear,0,2013-10-03 00:53:00
9:53 PM,64.9,61.0,87,30.07,10.0,Calm,Calm,-,N/A,,Clear,0,2013-10-03 01:53:00
10:53 PM,64.9,61.0,87,30.08,10.0,Calm,Calm,-,N/A,,Clear,0,2013-10-03 02:53:00
11:53 PM,62.1,60.1,93,30.09,10.0,Calm,Calm,-,N/A,,Clear,0,2013-10-03 03:53:00